This demonstration page uses our WeatherBlox Daily Observations layout. Learn more.

Left ArrowRight Arrow

40.92945, -100.16068

Hourly Observations for June 25, 2020

Temp ( °F °C ) Dew Point ( °F °C ) Humidity (%) Winds ( mph kmh ) Pressure ( in mb ) Visibility ( mi km ) Precip ( " mm )
12:15 am 00:15 Clear 70 21 61 16.1 74 74 SE 9 15 29.82 1010 10 16.0934 0 0
12:35 am 00:35 Clear 69 20.5 61 16.1 76 76 SE 9 15 29.83 1010 10 16.0934 0 0
12:55 am 00:55 Clear 68 20.2 61 16 77 77 SE 8 13 29.83 1010 10 16.0934 0 0
1:15 am 01:15 Clear 67 19.7 61 15.9 79 79 SE 9 15 29.83 1010 10 16.0934 0 0
1:35 am 01:35 Clear 67 19.2 60 15.7 80 80 ESE 8 13 29.83 1010 10 16.0934 0 0
1:55 am 01:55 Clear 66 19.1 60 15.6 80 80 SE 9 15 29.83 1010 10 16.0934 0 0
2:15 am 02:15 Clear 66 19 60 15.5 80 80 SE 7 11 29.82 1010 10 16.0934 0 0
2:35 am 02:35 Clear 66 18.7 60 15.5 82 82 SE 8 13 29.82 1010 10 16.0934 0 0
2:55 am 02:55 Clear 65 18.4 60 15.5 83 83 SE 7 11 29.83 1010 10 16.0934 0 0
3:15 am 03:15 Clear 65 18.3 60 15.5 84 84 SE 7 11 29.82 1010 10 16.0934 0 0
3:35 am 03:35 Clear 64 18 60 15.3 84 84 SE 6 9 29.82 1010 10 16.0934 0 0
3:55 am 03:55 Clear 64 18 60 15.3 84 84 ESE 6 9 29.82 1010 10 16.0934 0 0
4:15 am 04:15 Clear 64 17.8 60 15.3 85 85 ESE 6 9 29.81 1010 10 16.0934 0 0
4:35 am 04:35 Clear 63 17.4 59 15.2 87 87 ESE 6 9 29.81 1010 10 16.0934 0 0
4:55 am 04:55 Clear 63 17.2 59 15.2 88 88 SE 6 9 29.81 1009 10 16.0934 0 0
5:15 am 05:15 Clear 63 17.2 60 15.3 89 89 SE 5 7 29.81 1009 10 16.0934 0 0
5:35 am 05:35 Clear 62 16.7 59 15.1 90 90 ESE 6 9 29.81 1010 10 16.0934 0 0
5:55 am 05:55 Clear 62 16.6 59 15.1 91 91 ESE 6 9 29.81 1010 10 16.0934 0 0
6:15 am 06:15 Sunny 62 16.8 60 15.3 91 91 ESE 8 13 29.81 1009 10 16.0934 0 0
6:35 am 06:35 Sunny 63 17 60 15.5 91 91 ESE 7 11 29.81 1009 10 16.0934 0 0
6:55 am 06:55 Sunny 63 17.1 60 15.5 90 90 ESE 6 9 29.81 1009 10 16.0934 0 0
7:15 am 07:15 Sunny 63 17.2 60 15.6 90 90 ESE 7 11 29.81 1009 10 16.0934 0 0
7:35 am 07:35 Sunny 65 18.2 61 16 87 87 ESE 6 9 29.8 1009 10 16.0934 0 0
7:55 am 07:55 Sunny 66 19.1 61 16.1 83 83 ESE 7 11 29.8 1009 10 16.0934 0 0
8:15 am 08:15 Sunny 68 20 61 16.1 78 78 SE 8 13 29.79 1009 10 16.0934 0 0
8:35 am 08:35 Sunny 70 21.1 62 16.5 75 75 SE 7 11 29.78 1009 10 16.0934 0 0
8:55 am 08:55 Sunny 72 22.1 62 16.5 71 71 SE 9 15 29.77 1008 10 16.0934 0 0
9:15 am 09:15 Sunny 74 23.1 63 17 69 69 ESE 12 19 29.77 1008 10 16.0934 0 0
9:35 am 09:35 Sunny 76 24.2 63 17.2 65 65 ESE 10 17 29.74 1007 10 16.0934 0 0
9:55 am 09:55 Sunny 77 25.2 62 16.7 59 59 SSE 14 22 29.74 1007 10 16.0934 0 0
10:15 am 10:15 Sunny 79 26 62 16.8 57 57 SSE 12 19 29.72 1007 10 16.0934 0 0
10:35 am 10:35 Sunny 80 26.9 62 16.8 54 54 S 13 20 29.71 1006 10 16.0934 0 0
10:55 am 10:55 Sunny 82 27.6 62 16.4 51 51 SSE 10 17 29.72 1006 10 16.0934 0 0
11:15 am 11:15 Sunny 83 28.1 62 16.4 49 49 SE 9 15 29.71 1006 10 16.0934 0 0
11:35 am 11:35 Sunny 83 28.4 62 16.8 49 49 S 13 20 29.7 1006 10 16.0934 0 0
11:55 am 11:55 Sunny 85 29.2 62 16.9 47 47 S 12 19 29.69 1005 10 16.0934 0 0
12:15 pm 12:15 Sunny 85 29.3 63 17.1 48 48 SSE 12 19 29.69 1005 10 16.0934 0 0
12:35 pm 12:35 Sunny 86 30.2 63 17.1 45 45 SSE 9 15 29.69 1005 10 16.0934 0 0
12:55 pm 12:55 Sunny 87 30.8 64 17.5 45 45 SSE 10 17 29.67 1005 10 16.0934 0 0
1:15 pm 13:15 Sunny 88 31.2 63 17.2 43 43 SSE 14 22 29.67 1005 10 16.0934 0 0
1:35 pm 13:35 Sunny 88 31.3 63 17 42 42 SSE 12 19 29.66 1004 10 16.0934 0 0
1:55 pm 13:55 Sunny 89 31.7 63 17.3 42 42 SSE 13 20 29.65 1004 10 16.0934 0 0
2:15 pm 14:15 Sunny 90 32 64 17.5 42 42 SSE 15 24 29.64 1004 10 16.0934 0 0
2:35 pm 14:35 Sunny 90 32.2 64 17.6 42 42 SSE 14 22 29.64 1004 10 16.0934 0 0
2:55 pm 14:55 Sunny 92 33.2 63 17.2 38 38 SSE 16 26 29.62 1003 10 16.0934 0 0
3:15 pm 15:15 Sunny 92 33.6 64 17.9 39 39 SSE 15 24 29.61 1003 10 16.0934 0 0
3:35 pm 15:35 Sunny 94 34.2 64 17.7 37 37 SSE 17 28 29.61 1003 10 16.0934 0 0
3:55 pm 15:55 Sunny 94 34.6 64 17.5 36 36 SSE 18 30 29.59 1002 10 16.0934 0 0
4:15 pm 16:15 Sunny 94 34.7 62 16.9 35 35 SSE 15 24 29.58 1002 10 16.0934 0 0
4:35 pm 16:35 Sunny 96 35.4 62 16.6 33 33 SSE 17 28 29.57 1001 10 16.0934 0 0
4:55 pm 16:55 Sunny 96 35.4 64 17.6 35 35 S 14 22 29.56 1001 10 16.0934 0 0
5:15 pm 17:15 Sunny 96 35.6 61 16.3 32 32 SSE 16 26 29.56 1001 10 16.0934 0 0
5:35 pm 17:35 Sunny 96 35.3 61 16 32 32 SSE 16 26 29.55 1001 10 16.0934 0 0
5:55 pm 17:55 Sunny 91 33 62 16.8 38 38 SE 13 20 29.57 1001 10 16.0934 0 0
6:15 pm 18:15 Sunny 91 32.7 63 17.2 40 40 SE 10 17 29.57 1001 10 16.0934 0 0
6:35 pm 18:35 Sunny 90 32 65 18.2 44 44 ESE 10 17 29.56 1001 10 16.0934 0 0
6:55 pm 18:55 Sunny 89 31.5 66 18.8 47 47 SE 9 15 29.55 1001 10 16.0934 0 0
7:15 pm 19:15 Sunny 89 31.5 65 18.4 46 46 SE 9 15 29.55 1001 10 16.0934 0 0
7:35 pm 19:35 Sunny 87 30.6 62 16.9 44 44 SSE 12 19 29.56 1001 10 16.0934 0 0
7:55 pm 19:55 Sunny 88 31 59 15.1 38 38 SSE 13 20 29.55 1001 10 16.0934 0 0
8:15 pm 20:15 Sunny 88 31.3 57 14 35 35 SW 29 46 29.57 1001 10 16.0934 0 0
8:35 pm 20:35 Sunny 88 31.3 48 9 25 25 SSW 18 30 29.57 1001 10 16.0934 0 0
8:55 pm 20:55 Sunny 94 34.2 41 5.1 16 16 S 43 69 29.54 1000 7 11.26538 0 0
9:15 pm 21:15 Partly Cloudy with Drizzle 87 30.3 48 8.7 26 26 SSW 18 30 29.62 1003 10 16.0934 0 0
9:35 pm 21:35 Mostly Cloudy with Light Rain 85 29.5 49 9.5 29 29 SSW 14 22 29.63 1004 10 16.0934 0 0
9:55 pm 21:55 Partly Cloudy 81 27.4 52 11.1 36 36 S 8 13 29.64 1004 10 16.0934 0 0
10:15 pm 22:15 Clear 85 29.5 50 10.1 30 30 SW 20 31 29.65 1004 10 16.0934 0 0
10:35 pm 22:35 Clear 82 28 53 11.5 36 36 SW 16 26 29.7 1006 10 16.0934 0 0
10:55 pm 22:55 Clear 81 27.3 53 11.8 38 38 SSW 10 17 29.71 1006 10 16.0934 0 0
11:15 pm 23:15 Clear 82 27.8 52 11.1 35 35 SSW 14 22 29.71 1006 10 16.0934 0 0
11:35 pm 23:35 Clear 81 27.2 54 12.2 39 39 S 3 6 29.71 1006 10 16.0934 0 0
11:55 pm 23:55 Clear 76 24.6 55 12.5 47 47 N 8 13 29.76 1008 10 16.0934 0 0

Powered by AerisWeather